FW4092 Weather Reports


Display with metric or nautical units.
time (UTC)temp
F
wind
direction
speed
MPH
gust
MPH
rain 1hr
in
rain 24hr
in
rain mn
in
humidity
%
barometer
mb
20260504200329 80 32 5.0 12.0 0.00 0.00 0.00 24 1007.5
20260504195828 80 34 5.0 12.0 0.00 0.00 0.00 24 1007.7
20260504195328 80 38 5.0 11.0 0.00 0.00 0.00 24 1007.7
20260504194826 80 340 5.0 11.0 0.00 0.00 0.00 23 1007.7
20260504194612 80 34 5.0 12.0 0.00 0.00 0.00 25 1007.5
20260504193834 79 33 4.0 12.0 0.00 0.00 0.00 25 1007.7
20260504193601 80 38 3.0 10.0 0.00 0.00 0.00 27 1007.8
20260504192826 79 51 4.0 10.0 0.00 0.00 0.00 26 1007.8
20260504192325 79 344 5.0 12.0 0.00 0.00 0.00 26 1007.9
20260504191819 80 45 4.0 12.0 0.00 0.00 0.00 26 1007.8
20260504191316 79 15 4.0 15.0 0.00 0.00 0.00 27 1007.8
20260504190807 79 355 4.0 15.0 0.00 0.00 0.00 27 1007.8
20260504190303 79 53 5.0 12.0 0.00 0.00 0.00 28 1007.9
20260504190021 78 336 5.0 12.0 0.00 0.00 0.00 31 1008.0
20260504185256 78 330 5.0 18.0 0.00 0.00 0.00 32 1007.9
20260504184743 78 330 5.0 18.0 0.00 0.00 0.00 34 1007.9
20260504184240 78 333 4.0 11.0 0.00 0.00 0.00 32 1007.9
20260504183732 78 49 4.0 13.0 0.00 0.00 0.00 33 1008.1
20260504183226 77 45 5.0 13.0 0.00 0.00 0.00 35 1008.1
20260504182719 77 24 5.0 15.0 0.00 0.00 0.00 33 1008.2
20260504182220 76 45 5.0 14.0 0.00 0.00 0.00 34 1008.2
20260504182214 77 351 5.0 15.0 0.00 0.00 0.00 34 1008.2
20260504181200 76 36 5.0 14.0 0.00 0.00 0.00 33 1008.3
20260504180656 76 36 5.0 12.0 0.00 0.00 0.00 35 1008.4
20260504180422 75 337 5.0 11.0 0.00 0.00 0.00 33 1008.4
20260504175644 75 355 5.0 12.0 0.00 0.00 0.00 35 1008.5
20260504175137 76 32 5.0 12.0 0.00 0.00 0.00 34 1008.5
20260504174631 75 340 4.0 9.0 0.00 0.00 0.00 35 1008.4
20260504174400 75 46 4.0 10.0 0.00 0.00 0.00 36 1008.4
20260504173620 74 290 3.0 9.0 0.00 0.00 0.00 36 1008.3
20260504173114 74 337 3.0 9.0 0.00 0.00 0.00 35 1008.4
20260504172607 74 22 3.0 9.0 0.00 0.00 0.00 35 1008.4
20260504172100 75 36 3.0 7.0 0.00 0.00 0.00 34 1008.5
20260504171815 74 92 2.0 7.0 0.00 0.00 0.00 36 1008.4
20260504171311 74 131 1.0 7.0 0.00 0.00 0.00 35 1008.4
20260504170547 73 56 1.0 4.0 0.00 0.00 0.00 36 1008.5
20260504170110 72 61 1.0 4.0 0.00 0.00 0.00 38 1008.5
20260504170104 72 59 2.0 4.0 0.00 0.00 0.00 36 1008.5
20260504151036 57 125 2.0 7.0 0.00 0.00 0.00 54 1008.5
20260504150533 56 138 2.0 6.0 0.00 0.00 0.00 55 1008.6
20260504141039 49 153 4.0 7.0 0.00 0.00 0.00 63 1008.6
20260504140534 49 146 3.0 7.0 0.00 0.00 0.00 63 1008.6
20260504130419 49 144 3.0 7.0 0.00 0.00 0.00 62 1008.3
20260504110220 50 226 0.0 0.0 0.00 0.00 0.00 62 1008.3
20260504100210 52 259 0.0 0.0 0.00 0.00 0.00 57 1008.4
20260504081658 57 260 0.0 0.0 0.00 0.00 0.00 49 1008.5
20260504081154 57 261 0.0 0.0 0.00 0.00 0.00 48 1008.6
20260504080644 58 261 0.0 0.0 0.00 0.00 0.00 48 1008.6
20260504080139 58 261 0.0 0.0 0.00 0.00 0.00 47 1008.6
20260504050312 63 355 0.0 2.0 0.00 0.00 0.00 41 1008.4
20260504045804 64 355 0.0 1.0 0.00 0.00 0.00 40 1008.4
20260504045301 64 355 0.0 1.0 0.00 0.00 0.00 40 1008.4
20260504044759 65 355 0.0 1.0 0.00 0.00 0.00 39 1008.3
20260504044248 65 355 0.0 1.0 0.00 0.00 0.00 39 1008.3
20260504043745 66 355 0.0 1.0 0.00 0.00 0.00 38 1008.4
20260504043235 66 355 0.0 1.0 0.00 0.00 0.00 38 1008.3
20260504042728 67 355 0.0 1.0 0.00 0.00 0.00 37 1008.2
20260504042215 68 355 0.0 2.0 0.00 0.00 0.00 36 1008.3
20260504042210 68 355 0.0 2.0 0.00 0.00 0.00 36 1008.1
20260504041957 68 355 0.0 2.0 0.00 0.00 0.00 36 1008.1
20260504041201 69 355 0.0 3.0 0.00 0.00 0.00 35 1008.1
20260504040708 69 355 1.0 4.0 0.00 0.00 0.00 35 1008.0
20260504040207 69 351 2.0 5.0 0.00 0.00 0.00 35 1008.0
20260504035703 70 355 2.0 5.0 0.00 0.00 0.00 35 1008.0
20260504035204 70 355 2.0 5.0 0.00 0.00 0.00 34 1007.9
20260504034703 70 355 2.0 8.0 0.00 0.00 0.00 34 1007.8
20260504034200 71 336 2.0 8.0 0.00 0.00 0.00 33 1007.8
20260504033933 71 355 2.0 6.0 0.00 0.00 0.00 33 1007.8
20260504033432 71 355 2.0 5.0 0.00 0.00 0.00 33 1007.8
20260504032659 72 16 2.0 8.0 0.00 0.00 0.00 32 1007.7
20260504032159 72 348 3.0 8.0 0.00 0.00 0.00 32 1007.5
20260504031932 73 0 4.0 10.0 0.00 0.00 0.00 31 1007.5
20260504031204 73 355 3.0 10.0 0.00 0.00 0.00 31 1007.5
20260504030936 74 355 3.0 6.0 0.00 0.00 0.00 30 1007.4
20260504030428 74 355 3.0 9.0 0.00 0.00 0.00 30 1007.4
20260504025721 74 355 4.0 10.0 0.00 0.00 0.00 29 1007.4
20260504024655 76 5 5.0 13.0 0.00 0.00 0.00 29 1007.3
20260504024420 76 345 5.0 11.0 0.00 0.00 0.00 28 1007.2
20260504023947 76 11 5.0 13.0 0.00 0.00 0.00 28 1007.1
20260504023156 77 0 6.0 15.0 0.00 0.00 0.00 27 1007.2
20260504022649 77 355 6.0 15.0 0.00 0.00 0.00 27 1007.3
20260504022142 78 15 5.0 14.0 0.00 0.00 0.00 27 1007.1
20260504021935 79 343 5.0 17.0 0.00 0.00 0.00 27 1007.2
20260504021918 78 0 4.0 10.0 0.00 0.00 0.00 27 1007.2
20260504020624 79 50 5.0 17.0 0.00 0.00 0.00 26 1007.1
20260504020120 79 65 5.0 12.0 0.00 0.00 0.00 26 1007.1
20260504015620 79 19 6.0 16.0 0.00 0.00 0.00 26 1007.2
20260504015117 79 12 8.0 16.0 0.00 0.00 0.00 26 1007.3
20260504014616 79 342 8.0 14.0 0.00 0.00 0.00 26 1007.1
20260504014117 80 5 7.0 14.0 0.00 0.00 0.00 25 1007.1
20260504013614 80 343 5.0 12.0 0.00 0.00 0.00 25 1007.1
20260504013114 81 355 5.0 11.0 0.00 0.00 0.00 25 1007.2
20260504012615 80 15 6.0 14.0 0.00 0.00 0.00 26 1007.3
20260504012114 81 355 6.0 14.0 0.00 0.00 0.00 25 1007.2
20260504011611 81 345 5.0 13.0 0.00 0.00 0.00 25 1007.4
20260504011111 82 55 6.0 14.0 0.00 0.00 0.00 25 1007.4
20260504010619 81 35 6.0 14.0 0.00 0.00 0.00 25 1007.3
20260504010110 82 338 5.0 13.0 0.00 0.00 0.00 26 1007.3
20260504005608 82 24 6.0 14.0 0.00 0.00 0.00 25 1007.3
20260504005109 82 35 8.0 14.0 0.00 0.00 0.00 25 1007.3
20260504004630 83 322 5.0 14.0 0.00 0.01 0.00 24 1007.2
20260504004625 82 355 6.0 14.0 0.00 0.00 0.00 25 1007.2
20260504003608 83 28 5.0 14.0 0.00 0.01 0.00 25 1007.2
20260504003414 83 20 4.0 11.0 0.00 0.01 0.00 23 1007.3
20260504003409 83 64 4.0 12.0 0.00 0.01 0.00 24 1007.4
20260504003406 83 345 5.0 11.0 0.00 0.01 0.00 24 1007.3
20260504001544 83 61 4.0 12.0 0.00 0.01 0.00 23 1007.3
20260504001038 83 338 4.0 10.0 0.00 0.01 0.00 22 1007.2
20260504000531 82 36 5.0 11.0 0.00 0.01 0.00 23 1007.4
20260504000027 82 336 5.0 11.0 0.00 0.01 0.00 23 1007.4
20260503235520 83 5 4.0 11.0 0.00 0.01 0.00 21 1007.5
20260503235018 83 66 4.0 12.0 0.00 0.01 0.00 22 1007.5
20260503234803 83 349 5.0 12.0 0.00 0.01 0.00 22 1007.7
20260503234002 83 17 6.0 13.0 0.00 0.01 0.00 21 1007.7
20260503233456 84 11 5.0 13.0 0.00 0.01 0.00 21 1007.8
20260503233208 84 30 4.0 12.0 0.00 0.01 0.00 22 1007.8
20260503232445 84 5 5.0 12.0 0.00 0.01 0.00 23 1007.8
20260503231938 83 334 5.0 12.0 0.00 0.01 0.00 22 1007.8
20260503231432 83 65 5.0 12.0 0.00 0.01 0.00 23 1007.9
20260503231213 83 301 5.0 12.0 0.00 0.01 0.00 23 1008.0
20260503230706 82 22 6.0 14.0 0.00 0.01 0.00 24 1008.1
20260503225914 82 67 6.0 14.0 0.00 0.01 0.00 25 1008.2
20260503225408 83 319 5.0 13.0 0.00 0.01 0.00 24 1008.1
20260503224902 82 319 5.0 13.0 0.00 0.01 0.00 24 1008.3
20260503224356 82 33 6.0 13.0 0.00 0.01 0.00 25 1008.4
20260503224121 82 355 6.0 14.0 0.00 0.01 0.00 25 1008.4
20260503223616 82 49 7.0 15.0 0.00 0.01 0.00 26 1008.5
20260503223114 82 355 7.0 15.0 0.00 0.01 0.00 25 1008.4
20260503222405 82 355 7.0 15.0 0.00 0.01 0.00 27 1008.7
20260503221858 82 321 7.0 15.0 0.00 0.01 0.00 26 1008.7
20260503221359 82 332 6.0 12.0 0.00 0.01 0.00 27 1008.7
20260503220859 82 330 6.0 16.0 0.00 0.01 0.00 28 1008.7
20260503220613 82 315 6.0 16.0 0.00 0.01 0.00 27 1009.0
20260503215858 82 355 5.0 14.0 0.00 0.01 0.00 28 1008.9
20260503215357 82 5 5.0 12.0 0.00 0.01 0.00 28 1009.0
20260503215111 82 73 4.0 10.0 0.00 0.01 0.00 27 1009.1
20260503214356 82 65 5.0 12.0 0.00 0.01 0.00 30 1009.1
20260503214111 81 0 6.0 12.0 0.00 0.01 0.00 29 1009.2
20260503213609 81 355 6.0 12.0 0.00 0.01 0.00 30 1009.2
20260503213355 81 355 6.0 12.0 0.00 0.01 0.00 30 1009.2
20260503212902 81 44 6.0 11.0 0.00 0.01 0.00 29 1009.3
20260503212346 81 281 6.0 13.0 0.00 0.01 0.00 30 1009.4
20260503211846 81 46 5.0 13.0 0.00 0.01 0.00 31 1009.4
20260503211346 81 327 4.0 12.0 0.00 0.01 0.00 31 1009.5
20260503210847 80 50 4.0 12.0 0.00 0.01 0.00 32 1009.6
20260503210346 80 338 5.0 12.0 0.00 0.01 0.00 33 1009.6
20260503205846 79 331 5.0 12.0 0.00 0.01 0.00 33 1009.7
20260503205346 79 23 4.0 11.0 0.00 0.01 0.00 33 1009.7
20260503204846 79 355 5.0 12.0 0.00 0.01 0.00 32 1009.8
20260503204344 79 315 5.0 12.0 0.00 0.01 0.00 32 1009.8
20260503203843 79 23 4.0 9.0 0.00 0.01 0.00 34 1009.8
20260503203342 79 355 4.0 10.0 0.00 0.01 0.00 34 1009.9
20260503202841 79 334 4.0 10.0 0.00 0.01 0.00 33 1009.9
20260503202340 79 348 3.0 10.0 0.00 0.01 0.00 34 1010.2
20260503201840 79 355 3.0 8.0 0.00 0.01 0.00 35 1010.2
20260503201340 78 75 3.0 8.0 0.00 0.01 0.00 34 1010.3